STARLINK-6076, 56100

Orbit data source: Space-Track

STARLINK-6076, 56100 is a payload satellite owned by SpaceX/Seattle (US) in LEO that was launched on Wed, 29 Mar 2023 UTC via an FALCON 9 launch vehicle from the Air Force Eastern Test Range (AFETR). Payload-class satellites include a variety of spacecraft equipped with specific instruments for various scientific and technological missions. These include communications satellites like Starlink; space stations such as the ISS; scientific satellites like the Hubble; Earth observation satellites from companies like Planet Labs, Umbra, and HawkEye 360; GPS; miniature CubeSats for education and research; and military/defense satellites.

Loading next visibility...
Identifier
56100, 2023-046H
Orbit
LEO
Country
Flag of USUS
Related business
Manufacturer
SpaceX/Seattle
Mission
Operational Commercial Communications
Bus & Motor
STARLINK, Unknown motor
Mass
305 kg wet, ~290 kg dry
Launch date (UTC)
2023-03-29 (3 years ago)
Launch vehicle
FALCON 9
Launch site
Air Force Eastern Test Range (AFETR)
Object type
Payload
Rocket body
Debris
Shape & HBR
Box + 1 Pan, 10.1 m
Radar Cross Section
11.087 m², Large (>1 m²)

Expand to show TLE details & history
Last TLE update: 3 days ago

TLE from 3 days ago
0 STARLINK-6076
1 56100U 23046H   26170.41785772  .00000083  00000-0  12525-4 0  9994
2 56100  42.9996 306.7107 0001298 270.4214  89.6489 15.27576447177598
Epoch: 2026-06-19T10:01Z
TLE epoch observation values (Epoch: 2026-06-19T10:01:42.907Z)
Latitude
0.00001°
Longitude
-111.36519°
Altitude
482.83 km
Speed
7.626 km/s
True Right ascension
20h 26m 50s
True Declination
0° 00' 00"
Sunlit
Object was in full shadow at epoch
Visualization orbit readout
Latitude
Unknown
Longitude
Unknown
Altitude
Unknown
Speed
Unknown
Apparent Right ascension
Unknown
Apparent Declination
Unknown
Sunlit
N/A
Visualization observer readout
Local Sidereal Time
21:27:45
Azimuth
Unknown
Elevation
Unknown
Doppler factor
Unknown
Orbital elements
Apogee altitude
485.896 km
Perigee altitude
484.114 km
Semi-major axis
6,863.142 km
Eccentricity
0.00013
Inclination
42.9996°
RAAN
306.7107°
Arg. of periapsis
270.4214°
True anomaly
89.66377°
Mean anomaly
89.6489°
Eccentric anomaly
89.65634°
Mean motion
3.81732 °/min
Orbital period
94.31 mins
BSTAR
0.000012525
Loading maneuver chart data...
Computing Atmospheric mass density...
Loading historical data...
Loading historical data...
Loading historical data...
Loading historical data...
Loading historical data...
Loading historical data...
Loading historical data...

Documentation

Showing up to 5 results
|